Milan, NM

3:44 AM MST on February 22, 2017 (GMT -0700)
Grants-Milan Municipal

Weather History for KGNT - November, 2012

Change the Weather History Date:

Sunday, November 4, 2012

  Actual Average Record
Temperature  
Mean Temperature 46 °F -  
Max Temperature 69 °F 61 °F 74 °F (1985)
Min Temperature 23 °F 24 °F 12 °F (1970)
Degree Days  
Heating Degree Days 19    
Moisture  
Dew Point 10 °F    
Average Humidity 29    
Maximum Humidity 52    
Minimum Humidity 10    
Precipitation  
Precipitation 0.00 in - - ()
Sea Level Pressure  
Sea Level Pressure 30.35 in    
Wind  
Wind Speed 7 mph (NNW)    
Max Wind Speed 15 mph    
Max Gust Speed 23 mph    
Visibility 10 miles    
Events      
Averages and records for this station are not official NWS values.
T = Trace of Precipitation, MM = Missing Value Source: NWS Daily Summary

Daily Weather History Graph

Daily Weather History Graph

Search for Another Location

Airport or City:

Trip Planner

Search our weather history database for the weather conditions in past years. The results will help you decide how hot, cold, wet, or windy it might be!

Date:

Astronomy

Nov. 04, 2012 Rise Set
Actual Time 6:36 AM MST 5:13 PM MST
Civil Twilight 6:09 AM MST 5:40 PM MST
Nautical Twilight 5:39 AM MST 6:10 PM MST
Astronomical Twilight 5:09 AM MST 6:39 PM MST
Moon 9:56 PM MST (11/4) 11:19 AM MST (11/4)
Length of Visible Light 11h 30m
Length of Day
10h 37m
Waning Gibbous, 71% of the Moon is Illuminated
Nov 4
Waning Gibbous
Nov 6
Last Quarter
Nov 13
New
Nov 20
First Quarter
Nov 28
Full

Hourly Weather History & Observations

Time (MST) Temp. Windchill Dew Point Humidity Pressure Visibility Wind Dir Wind Speed Gust Speed Precip Events Conditions
12:15 AM 35.2 °F 30.3 °F 11.8 °F 38% 30.32 in 10.0 mi NW 5.8 mph - N/A   Clear
12:35 AM 34.7 °F 28.8 °F 11.1 °F 38% 30.32 in 10.0 mi NW 6.9 mph - N/A   Clear
12:55 AM 32.0 °F 26.4 °F 10.2 °F 40% 30.33 in 10.0 mi NW 5.8 mph - N/A   Clear
1:15 AM 34.3 °F 28.4 °F 11.3 °F 39% 30.33 in 10.0 mi NW 6.9 mph - N/A   Clear
1:35 AM 33.8 °F 29.6 °F 11.1 °F 39% 30.33 in 10.0 mi WNW 4.6 mph - N/A   Clear
1:55 AM 30.7 °F 24.9 °F 10.8 °F 43% 30.33 in 10.0 mi NW 5.8 mph - N/A   Clear
1:15 AM 31.1 °F 25.4 °F 10.9 °F 43% 30.33 in 10.0 mi WNW 5.8 mph - N/A   Clear
1:35 AM 32.0 °F 24.8 °F 10.9 °F 42% 30.33 in 10.0 mi NW 8.1 mph - N/A   Clear
1:55 AM 29.7 °F 22.0 °F 10.2 °F 44% 30.34 in 10.0 mi WNW 8.1 mph - N/A   Clear
2:15 AM 32.0 °F 25.6 °F 10.4 °F 41% 30.34 in 10.0 mi WNW 6.9 mph - N/A   Clear
2:35 AM 29.5 °F 23.4 °F 9.5 °F 43% 30.34 in 10.0 mi NW 5.8 mph - N/A   Clear
2:55 AM 29.1 °F 22.1 °F 9.5 °F 44% 30.34 in 10.0 mi NW 6.9 mph - N/A   Clear
3:15 AM 27.9 °F 20.6 °F 9.5 °F 46% 30.34 in 10.0 mi NW 6.9 mph - N/A   Clear
3:35 AM 27.0 °F 18.7 °F 9.1 °F 47% 30.34 in 10.0 mi NW 8.1 mph - N/A   Clear
3:55 AM 27.5 °F 19.3 °F 8.6 °F 45% 30.34 in 10.0 mi NW 8.1 mph - N/A   Clear
4:15 AM 26.4 °F 18.9 °F 8.1 °F 46% 30.34 in 10.0 mi NW 6.9 mph - N/A   Clear
4:35 AM 27.3 °F 19.1 °F 8.6 °F 45% 30.34 in 10.0 mi NW 8.1 mph - N/A   Clear
4:55 AM 26.4 °F 18.9 °F 8.2 °F 46% 30.35 in 10.0 mi WNW 6.9 mph - N/A   Clear
5:15 AM 26.2 °F 17.8 °F 8.4 °F 47% 30.36 in 10.0 mi NW 8.1 mph - N/A   Clear
5:35 AM 25.5 °F 17.8 °F 8.2 °F 48% 30.36 in 10.0 mi WNW 6.9 mph - N/A   Clear
5:55 AM 24.8 °F 16.9 °F 8.2 °F 49% 30.36 in 10.0 mi NNW 6.9 mph - N/A   Clear
6:15 AM 23.0 °F 13.9 °F 7.5 °F 52% 30.36 in 10.0 mi NW 8.1 mph - N/A   Clear
6:35 AM 23.5 °F 13.7 °F 7.3 °F 50% 30.36 in 10.0 mi NW 9.2 mph - N/A   Clear
6:55 AM 25.7 °F 17.1 °F 8.2 °F 48% 30.37 in 10.0 mi WNW 8.1 mph - N/A   Clear
7:15 AM 26.6 °F 17.5 °F 7.5 °F 45% 30.38 in 10.0 mi NW 9.2 mph - N/A   Clear
7:35 AM 28.6 °F 21.5 °F 7.9 °F 42% 30.38 in 10.0 mi NW 6.9 mph - N/A   Clear
7:55 AM 32.0 °F 25.6 °F 8.6 °F 38% 30.40 in 10.0 mi NW 6.9 mph - N/A   Clear
8:15 AM 35.8 °F 29.4 °F 9.5 °F 34% 30.40 in 10.0 mi NNW 8.1 mph - N/A   Clear
8:35 AM 38.3 °F 32.5 °F 10.2 °F 31% 30.40 in 10.0 mi NNW 8.1 mph - N/A   Clear
8:55 AM 41.4 °F 36.8 °F 11.1 °F 29% 30.40 in 10.0 mi NNW 6.9 mph - N/A   Clear
9:15 AM 44.4 °F 40.5 °F 11.5 °F 26% 30.40 in 10.0 mi NNW 6.9 mph - N/A   Clear
9:35 AM 47.3 °F - 12.4 °F 25% 30.40 in 10.0 mi NW 5.8 mph - N/A   Clear
9:55 AM 50.0 °F - 12.6 °F 22% 30.40 in 10.0 mi NNW 5.8 mph - N/A   Clear
10:15 AM 52.7 °F - 12.9 °F 21% 30.39 in 10.0 mi NNW 3.5 mph - N/A   Clear
10:35 AM 56.3 °F - 13.1 °F 18% 30.38 in 10.0 mi North 4.6 mph - N/A   Clear
10:55 AM 59.9 °F - 13.1 °F 16% 30.38 in 10.0 mi North 6.9 mph - N/A   Clear
11:15 AM 61.9 °F - 13.1 °F 15% 30.37 in 10.0 mi North 6.9 mph - N/A   Clear
11:35 AM 62.4 °F - 12.6 °F 14% 30.36 in 10.0 mi Calm Calm - N/A   Clear
11:55 AM 64.4 °F - 13.1 °F 14% 30.35 in 10.0 mi ENE 5.8 mph - N/A   Clear
12:15 PM 66.2 °F - 12.9 °F 13% 30.34 in 10.0 mi NNW 11.5 mph 17.3 mph N/A   Clear
12:35 PM 67.5 °F - 12.7 °F 12% 30.32 in 10.0 mi NNW 15.0 mph 23.0 mph N/A   Clear
12:55 PM 67.5 °F - 12.9 °F 12% 30.32 in 10.0 mi North 13.8 mph 18.4 mph N/A   Clear
1:15 PM 68.0 °F - 13.1 °F 12% 30.31 in 10.0 mi North 11.5 mph 19.6 mph N/A   Clear
1:35 PM 68.7 °F - 13.5 °F 12% 30.31 in 10.0 mi North 11.5 mph - N/A   Clear
1:55 PM 68.5 °F - 12.6 °F 12% 30.31 in 10.0 mi NNW 11.5 mph 17.3 mph N/A   Clear
2:15 PM 69.1 °F - 11.3 °F 11% 30.30 in 10.0 mi NNW 13.8 mph 17.3 mph N/A   Clear
2:35 PM 68.0 °F - 11.1 °F 11% 30.31 in 10.0 mi North 12.7 mph 21.9 mph N/A   Clear
2:55 PM 67.1 °F - 10.9 °F 11% 30.30 in 10.0 mi North 15.0 mph 21.9 mph N/A   Clear
3:15 PM 65.3 °F - 10.0 °F 12% 30.31 in 10.0 mi North 15.0 mph 20.7 mph N/A   Clear
3:35 PM 64.9 °F - 8.6 °F 11% 30.31 in 10.0 mi NNE 13.8 mph - N/A   Clear
3:55 PM 66.2 °F - 9.3 °F 11% 30.31 in 10.0 mi North 12.7 mph 18.4 mph N/A   Clear
4:15 PM 65.5 °F - 9.1 °F 11% 30.31 in 10.0 mi North 12.7 mph 16.1 mph N/A   Clear
4:35 PM 64.8 °F - 7.3 °F 10% 30.30 in 10.0 mi North 9.2 mph - N/A   Clear
4:55 PM 63.0 °F - 7.3 °F 11% 30.31 in 10.0 mi North 8.1 mph - N/A   Clear
5:15 PM 59.9 °F - 8.6 °F 13% 30.31 in 10.0 mi North 8.1 mph - N/A   Clear
5:35 PM 53.6 °F - 7.5 °F 16% 30.32 in 10.0 mi NNW 8.1 mph - N/A   Clear
5:55 PM 53.4 °F - 8.6 °F 17% 30.32 in 10.0 mi NW 9.2 mph - N/A   Clear
6:15 PM 51.4 °F - 10.4 °F 19% 30.34 in 10.0 mi NW 6.9 mph - N/A   Clear
6:35 PM 49.6 °F - 10.9 °F 21% 30.34 in 10.0 mi NNW 4.6 mph - N/A   Clear
6:55 PM 47.8 °F - 11.8 °F 23% 30.35 in 10.0 mi Calm Calm - N/A   Clear
7:15 PM 43.2 °F - 10.6 °F 27% 30.36 in 10.0 mi Calm Calm - N/A   Clear
7:35 PM 40.3 °F 38.2 °F 9.1 °F 28% 30.36 in 10.0 mi NNW 3.5 mph - N/A   Clear
7:55 PM 40.3 °F 33.9 °F 9.7 °F 28% 30.35 in 10.0 mi NW 10.4 mph - N/A   Clear
8:15 PM 41.7 °F 38.8 °F 10.8 °F 28% 30.35 in 10.0 mi SE 4.6 mph - N/A   Clear
8:35 PM 40.1 °F - 10.8 °F 30% 30.37 in 10.0 mi Calm Calm - N/A   Clear
8:55 PM 36.1 °F - 10.0 °F 34% 30.37 in 10.0 mi Calm Calm - N/A   Clear
9:15 PM 32.9 °F - 8.8 °F 37% 30.38 in 10.0 mi Calm Calm - N/A   Clear
9:35 PM 34.9 °F - 9.5 °F 35% 30.38 in 10.0 mi Calm Calm - N/A   Clear
9:55 PM 34.3 °F - 10.2 °F 37% 30.38 in 10.0 mi Calm Calm - N/A   Clear
10:15 PM 37.6 °F - 10.2 °F 32% 30.38 in 10.0 mi Calm Calm - N/A   Clear
10:35 PM 41.2 °F - 11.3 °F 30% 30.37 in 10.0 mi Calm Calm - N/A   Clear
10:55 PM 36.0 °F 33.3 °F 8.8 °F 32% 30.37 in 10.0 mi NNW 3.5 mph - N/A   Clear